San Jose/Bolanos, Costa Rica

8:52 PM CST on February 21, 2017 (GMT -0600)
Tobias Bolanos International

Weather History for MRPV - August, 2014

Change the Weather History Date:

Sunday, August 10, 2014

  Actual Average Record
Temperature  
Mean Temperature 76 °F -  
Max Temperature 84 °F 78 °F 84 °F (2005)
Min Temperature 67 °F 68 °F 64 °F (2012)
Cooling Degree Days 10    
Growing Degree Days 26 (Base 50)    
Moisture  
Dew Point 66 °F    
Average Humidity 71    
Maximum Humidity 96    
Minimum Humidity 46    
Precipitation  
Precipitation 0.04 in - - ()
Sea Level Pressure  
Sea Level Pressure 29.98 in    
Wind  
Wind Speed 7 mph ()    
Max Wind Speed 15 mph    
Max Gust Speed 37 mph    
Visibility 5.2 miles    
Events Fog , Rain , Thunderstorm    
Averages and records for this station are not official NWS values.
T = Trace of Precipitation, MM = Missing Value Source: Averaged Metar Reports

Daily Weather History Graph

Daily Weather History Graph

Search for Another Location

Airport or City:

Trip Planner

Search our weather history database for the weather conditions in past years. The results will help you decide how hot, cold, wet, or windy it might be!

Date:

Astronomy

Aug. 10, 2014 Rise Set
Actual Time 5:27 AM CST 5:56 PM CST
Civil Twilight 5:05 AM CST 6:18 PM CST
Nautical Twilight 4:39 AM CST 6:43 PM CST
Astronomical Twilight 4:13 AM CST 7:09 PM CST
Moon 5:57 PM CST (8/10) 5:09 AM CST (8/10)
Length of Visible Light 13h 12m
Length of Day
12h 29m
Full, 100% of the Moon is Illuminated
Aug 10
Full
Aug 10
Full
Aug 17
Last Quarter
Aug 25
New
Sep 2
First Quarter

Hourly Weather History & Observations

Time (CST) Temp. Heat Index Dew Point Humidity Pressure Visibility Wind Dir Wind Speed Gust Speed Precip Events Conditions
6:00 AM 69 °F - 60 °F 66% 29.90 in 6 mi SE 8.1 mph - -   Scattered Clouds
6:00 AM 68.0 °F - 60.8 °F 78% 30.03 in 6.2 mi SE 8.1 mph - N/A   Partly Cloudy
7:00 AM 69.8 °F - 60.8 °F 73% 30.05 in 6.2 mi ESE 6.9 mph - N/A   Partly Cloudy
8:00 AM 77.0 °F - 62.6 °F 61% 30.06 in - ESE 10.4 mph - N/A   Clear
9:00 AM 78 °F - 62 °F 49% 29.90 in 6 mi East 9.2 mph - -   Scattered Clouds
9:00 AM 78.8 °F - 62.6 °F 57% 30.06 in 6.2 mi East 9.2 mph - N/A   Mostly Cloudy
10:00 AM 77.0 °F - 62.6 °F 61% 30.06 in 6.2 mi ENE 9.2 mph - N/A   Mostly Cloudy
11:00 AM 78.8 °F - 62.6 °F 57% 30.05 in 6.2 mi ENE 4.6 mph - N/A   Mostly Cloudy
11:44 AM 80.6 °F 82.3 °F 64.4 °F 58% 30.03 in 6.2 mi SW 3.5 mph - N/A   Mostly Cloudy
12:00 PM 81 °F - 64 °F 46% 29.86 in 6 mi WNW 4.6 mph - -   Overcast
12:00 PM 80.6 °F 82.3 °F 64.4 °F 58% 30.03 in 6.2 mi WNW 4.6 mph - N/A   Mostly Cloudy
1:00 PM 80.6 °F 82.7 °F 66.2 °F 61% 30.01 in 6.2 mi WNW 11.5 mph - N/A   Mostly Cloudy
1:40 PM 78.8 °F - 66.2 °F 65% 29.98 in 6.2 mi West 10.4 mph - N/A Rain , Thunderstorm Light Thunderstorms and Rain
1:45 PM 78.8 °F - 66.2 °F 65% 29.98 in 0.3 mi West 9.2 mph - N/A Rain , Thunderstorm Light Thunderstorms and Rain
2:00 PM 69.8 °F - 66.2 °F 88% 29.98 in 6.2 mi West 15.0 mph 36.8 mph N/A Rain , Thunderstorm Thunderstorms and Rain
2:48 PM 77.0 °F - 68.0 °F 74% 29.97 in 6.2 mi WSW 1.2 mph - N/A   Mostly Cloudy
3:00 PM 78 °F - 69 °F 67% 29.78 in 6 mi SW 2.3 mph - -   Haze
3:00 PM 77.0 °F - 69.8 °F 78% 29.96 in 6.2 mi SW 2.3 mph - N/A   Mostly Cloudy
4:00 PM 75.2 °F - 69.8 °F 83% 29.96 in 6.2 mi West 11.5 mph - N/A   Mostly Cloudy
4:28 PM 73.4 °F - 68.0 °F 83% 29.97 in 4.3 mi West 9.2 mph - N/A Fog , Rain Rain
5:00 PM 71.6 °F - 68.0 °F 88% 29.98 in 5.0 mi West 3.5 mph - N/A Fog , Rain , Thunderstorm Light Rain
5:44 PM 71.6 °F - 69.8 °F 94% 30.01 in 2.8 mi West 5.8 mph - N/A   Drizzle
6:00 PM 70 °F - 69 °F 96% 29.89 in 2 mi West 4.6 mph - - Rain Light Rain
6:00 PM 71.6 °F - 69.8 °F 94% 30.02 in 1.2 mi West 5.8 mph - N/A Rain Light Rain